Sterling, IL

11:12 PM CST on November 19, 2019 (GMT -0600)
Whiteside County-Bittorf

Weather History for KSQI - September, 2019

Change the Weather History Date:

Monday, September 9, 2019

  Actual Average Record
Temperature  
Mean Temperature 69 °F -  
Max Temperature 79 °F 76 °F 100 °F (2013)
Min Temperature 59 °F 52 °F 42 °F (2008)
Cooling Degree Days 4    
Growing Degree Days 19 (Base 50)    
Moisture  
Dew Point 63 °F    
Average Humidity 92    
Maximum Humidity 100    
Minimum Humidity 77    
Precipitation  
Precipitation 0.03 in - - ()
Sea Level Pressure  
Sea Level Pressure 29.88 in    
Wind  
Wind Speed 7 mph ()    
Max Wind Speed 16 mph    
Max Gust Speed 23 mph    
Visibility 9.9 miles    
Events Rain , Thunderstorm    
Averages and records for this station are not official NWS values.
T = Trace of Precipitation, MM = Missing Value Source: Averaged Metar Reports

Daily Weather History Graph

Daily Weather History Graph

Search for Another Location

Airport or City:

Astronomy

Sep. 09, 2019 Rise Set
Actual Time 6:32 AM CDT 7:18 PM CDT
Civil Twilight 6:04 AM CDT 7:46 PM CDT
Nautical Twilight 5:30 AM CDT 8:20 PM CDT
Astronomical Twilight 4:56 AM CDT 8:54 PM CDT
Moon 5:18 PM CDT (9/9) 1:59 AM CDT (9/9)
Length of Visible Light 13h 42m
Length of Day
12h 46m
Waxing Gibbous, 83% of the Moon is Illuminated
Sep 9
Waxing Gibbous
Sep 13
Full
Sep 21
Last Quarter
Sep 28
New
Oct 5
First Quarter

Hourly Weather History & Observations

Time (CDT) Temp. Dew Point Humidity Pressure Visibility Wind Dir Wind Speed Gust Speed Precip Events Conditions
12:56 AM 61.0 °F 57.0 °F 87% 29.75 in 10.0 mi East 6.9 mph - N/A   Overcast
1:04 AM 60.8 °F 57.2 °F 88% 30.14 in 10.0 mi East 9.2 mph - N/A   Overcast
1:14 AM 60.8 °F 57.2 °F 88% 30.15 in 10.0 mi East 6.9 mph - N/A   Overcast
1:22 AM 60.8 °F 57.2 °F 88% 30.15 in 10.0 mi ENE 8.1 mph - N/A   Overcast
1:31 AM 60.8 °F 57.2 °F 88% 30.15 in 10.0 mi ENE 6.9 mph - N/A   Overcast
1:56 AM 60.1 °F 57.0 °F 90% 29.75 in 10.0 mi East 5.8 mph - N/A   Mostly Cloudy
2:52 AM 60.8 °F 57.2 °F 88% 30.14 in 10.0 mi East 8.1 mph - N/A   Overcast
2:56 AM 60.1 °F 57.0 °F 90% 29.74 in 10.0 mi ENE 8.1 mph - N/A   Overcast
3:56 AM 59.0 °F 57.9 °F 96% 29.73 in 10.0 mi East 8.1 mph - N/A   Mostly Cloudy
4:56 AM 60.1 °F 57.9 °F 93% 29.74 in 10.0 mi East 8.1 mph - N/A   Overcast
5:56 AM 61.0 °F 59.0 °F 93% 29.74 in 10.0 mi East 6.9 mph - N/A   Overcast
6:56 AM 61.0 °F 60.1 °F 97% 29.75 in 10.0 mi East 6.9 mph - 0.00 in   Overcast
7:23 AM 62.6 °F 60.8 °F 94% 30.15 in 10.0 mi East 6.9 mph - N/A   Overcast
7:32 AM 62.6 °F 60.8 °F 94% 30.15 in 10.0 mi East 10.4 mph - N/A   Overcast
7:40 AM 62.6 °F 60.8 °F 94% 30.15 in 10.0 mi East 10.4 mph - N/A   Overcast
7:56 AM 62.1 °F 61.0 °F 96% 29.75 in 10.0 mi East 8.1 mph - N/A   Overcast
8:15 AM 62.6 °F 60.8 °F 94% 30.16 in 10.0 mi East 4.6 mph - N/A Thunderstorm Overcast
8:44 AM 62.6 °F 60.8 °F 94% 30.15 in 10.0 mi East 6.9 mph - 0.00 in Rain Light Rain
8:56 AM 63.0 °F 61.0 °F 93% 29.76 in 10.0 mi East 9.2 mph - 0.00 in   Overcast
9:22 AM 62.6 °F 62.6 °F 100% 30.14 in 10.0 mi East 11.5 mph - 0.02 in   Overcast
9:34 AM 64.4 °F 62.6 °F 94% 30.15 in 10.0 mi East 10.4 mph - 0.02 in Thunderstorm Overcast
9:53 AM 64.4 °F 62.6 °F 94% 30.15 in 10.0 mi East 9.2 mph - 0.02 in Thunderstorm Overcast
9:56 AM 64.0 °F 63.0 °F 96% 29.75 in 10.0 mi East 10.4 mph - 0.02 in Thunderstorm Overcast
10:27 AM 64.4 °F 62.6 °F 94% 30.15 in 10.0 mi East 8.1 mph - N/A   Overcast
10:41 AM 64.4 °F 62.6 °F 94% 30.18 in 10.0 mi NNW 9.2 mph - N/A   Overcast
10:56 AM 64.0 °F 63.0 °F 96% 29.80 in 10.0 mi NNW 10.4 mph - N/A   Overcast
11:18 AM 64.4 °F 62.6 °F 94% 30.15 in 7.0 mi ENE 13.8 mph - 0.01 in Rain Light Rain
11:56 AM 64.9 °F 64.0 °F 97% 29.74 in 9.0 mi East 12.7 mph - 0.01 in   Mostly Cloudy
12:56 PM 66.9 °F 64.9 °F 93% 29.72 in 10.0 mi East 16.1 mph - N/A   Overcast
1:56 PM 71.1 °F 66.0 °F 84% 29.70 in 10.0 mi East 13.8 mph 23.0 mph N/A   Mostly Cloudy
2:56 PM 73.9 °F 68.0 °F 82% 29.69 in 10.0 mi SE 9.2 mph - 0.00 in Rain Light Rain
3:56 PM 75.0 °F 69.1 °F 82% 29.66 in 10.0 mi ESE 10.4 mph 18.4 mph N/A   Partly Cloudy
4:56 PM 78.1 °F 71.1 °F 79% 29.63 in 10.0 mi ESE 10.4 mph - N/A   Clear
5:56 PM 79.0 °F 71.1 °F 77% 29.62 in 10.0 mi SE 8.1 mph - N/A   Clear
6:56 PM 75.0 °F 71.1 °F 87% 29.62 in 10.0 mi ESE 4.6 mph - N/A   Clear
7:56 PM 71.1 °F 70.0 °F 96% 29.62 in 10.0 mi East 4.6 mph - N/A   Clear
8:56 PM 72.0 °F 71.1 °F 97% 29.62 in 10.0 mi ESE 5.8 mph - N/A   Clear
9:56 PM 73.0 °F 71.1 °F 93% 29.62 in 10.0 mi SE 5.8 mph - N/A   Clear
10:56 PM 73.9 °F 72.0 °F 93% 29.62 in 10.0 mi Variable 3.5 mph - N/A   Clear
11:56 PM 73.0 °F 72.0 °F 96% 29.62 in 10.0 mi Variable 4.6 mph - N/A   Clear